loading
|

STARLINK-32076, 60350

Orbit data source: Space-Track

STARLINK-32076, 60350 is a payload satellite owned by SpaceX/Seattle (US) in LEO that was launched on Fri, 02 Aug 2024 UTC via an FALCON 9 launch vehicle from the Air Force Eastern Test Range (AFETR). Payloads include a variety of satellites, spacecraft, and rockets equipped with specific instruments for various scientific and technological missions. These include communications satellites like Starlink; space stations such as the ISS; scientific satellites like the Hubble; Earth observation satellites from companies like Planet Labs, Umbra, and HawkEye 360; GPS; miniature CubeSats for education and research; and military/defense satellites.

Loading next visibility...
Loading greatness...
STARLINK-32076 details
Identifier
60350, 2024-136X
Orbit
LEO
Last TLE update7 hours ago
Origin
Flag of USSpaceX/Seattle (US)
ManufacturerSpaceX/Seattle
Mission statusOperational
MissionUnknown
Bus & MotorSTARLINK V2M, Unknown motor
Mass750 kg wet, ~700 kg dry
Launch date (UTC)
2024-08-02 (2 months ago)
Launch vehicle
FALCON 9
Launch site
Air Force Eastern Test Range (AFETR)
Object type
Payload
Rocket body
Debris
Radar Cross SectionLarge (>1 m²)

Expand to show TLE details & history

TLE from 7 hours ago
0 STARLINK-32076
1 60350U 24136X   24261.57630888  .00000896  00000-0  32365-4 0  9996
2 60350  53.1635  55.3717 0001073  71.8079 288.3042 15.39640117  7270
Epoch: 2024-09-17T13:49Z
Definitive object data (Epoch: 2024-09-17T13:49:53.087Z)
Latitude-0.00006°
Longitude-149.08853°
Altitude447.847 km
Speed7.645 km/s
True Right ascension03h 41m 29s
True Declination0° 00' 00"
Sunlit
Object was in full shadow at TLE epoch
Predictive object data (real-time)
Latitude-47.77188°
Longitude154.27944°
Altitude464.087 km
Speed7.634 km/s
Apparent Right ascension01h 03m 49s
Apparent Declination-45° 01' 45"
Sunlit
Object is in full shadow
Predictive observer data (real-time)
Local Sidereal Time14:08:28
Azimuth118.552° SE
Elevation-77.058°
Doppler factor1
Orbital elements
Apogee448.162 km
Perigee446.697 km
Semi-major axis6,825.567 km
Eccentricity0.0001073
Inclination53.1635°
RAAN55.3717°
Arg. of periapsis71.8079°
True anomaly288.29253°
Mean anomaly288.3042°
Eccentric anomaly288.29836°
Mean motion3.84889 °/min
BSTAR0.000032365
Period93.53 mins
No data available

STARLINK-32076 Visibility forecast

Observer location: 39.9160978°, -105.1181434

STARLINK-32076 is not visible in the next 10 days
Span
Click to sort rows by Start time (UTC) header in descending order
Start Az.
Max El. time (UTC)
Max El. Az.
Max El.
End time (UTC)
End Az.